Regional Weather Roundup
Issued by NWS

Home | Current Version | Previous Version | Text Only | Print | Product List | Glossary Off
Versions: 1 2 3 4 5 6 7 8 9 10 11 12 13 14 15 16 17 18 19 20 21 22 23 24 25 26 27 28 29 30 31 32 33 34 35 36 37 38 39 40 41 42 43 44 45 46 47 48 49 50

000
ASUS44 KMEG 090300
RWRTN
TENNESSEE HOURLY STATE WEATHER ROUNDUP
NATIONAL WEATHER SERVICE MEMPHIS TN
900 PM CST MON FEB 08 2016

TNZ002-004-019-021-049-052-054-088>092-090400-
WEST TENNESSEE

CITY           SKY/WX    TMP DP  RH WIND       PRES   REMARKS
MEMPHIS INTL   CLOUDY    38  19  46 NW10G22   30.00F WCI  31
NWS MEMPHIS      N/A     36 N/A N/A MISG        N/A
JACKSON        CLOUDY    35  19  52 NW14G26   29.96S WCI  26
DYERSBURG      CLOUDY    34  21  60 NW13      29.98S WCI  25
UNION CITY     CLOUDY    28  19  69 NW9       29.93F WCI  20
PARIS          CLOUDY    27  16  63 W7        29.93S WCI  19
$$

TNZ008-025-027-028-033-062-065-066-090400-
NORTH MIDDLE TENNESSEE

CITY           SKY/WX    TMP DP  RH WIND       PRES   REMARKS
NASHVILLE      LGT SNOW  30  23  75 NW9       29.90S WCI  22
CLARKSVILLE    CLOUDY    27  21  78 NW13      29.91F WCI  16
COOKEVILLE     CLOUDY    28  25  86 NW13      29.84S WCI  18
CROSSVILLE     LGT SNOW  27  23  85 W13G18    29.79S FOG     WCI  16
$$

TNZ061-075-076-078-094-096-097-090400-
SOUTH MIDDLE TENNESSEE

CITY           SKY/WX    TMP DP  RH WIND       PRES   REMARKS
TULLAHOMA      CLOUDY    28  27  93 NW10      29.87F WCI  19
WINCHESTER     CLOUDY    32  25  74 NW13      29.88R WCI  22
MCMINNVILLE    CLOUDY    30  21  69 W14       29.85F WCI  20
COLUMBIA       MOCLDY    30  30 100 W3        29.88F
SHELBYVILLE    CLOUDY    30  28  93 W8        29.90F WCI  23
$$

TNZ017-018-042-046-047-090400-
NORTHEAST TENNESSEE

CITY           SKY/WX    TMP DP  RH WIND       PRES   REMARKS
TRI CITIES     CLOUDY    33  30  88 W8        29.70F WCI  26
$$

TNZ012-013-036-069-073-074-090400-
CENTRAL EAST TENNESSEE

CITY           SKY/WX    TMP DP  RH WIND       PRES   REMARKS
KNOXVILLE      FLURRIES  33  22  63 W17G25    29.79R WCI  22
OAK RIDGE      CLOUDY    32  26  78 W8        29.81R WCI  25
GATLINBURG     CLOUDY    34  21  60 W16       29.76R WCI  23
$$

TNZ083-085-099-090400-
SOUTHEAST TENNESSEE

CITY           SKY/WX    TMP DP  RH WIND       PRES   REMARKS
CHATTANOOGA    MOCLDY    35  23  61 W10       29.87S WCI  27
$$

SKY/WX REPORTED AS FAIR MEANS FEW OR NO CLOUDS BELOW
12 THOUSAND FEET.




USA.gov is the U.S. government's official web portal to all federal, state and local government web resources and services.